Terminal Aerodrome Forecast
Issued by NWS

Home | Current Version | Previous Version | Text Only | Print | Product List | Glossary On
Versions: 1 2 3 4 5 6 7 8 9 10 11 12 13 14 15 16 17 18 19 20 21
000
FTUS46 KSEW 232111 AAA
TAFHQM
TAF AMD
KHQM 232111Z 2321/2418 25012KT P6SM SCT040
      TEMPO 2321/2324 BKN040
     FM240300 29007KT P6SM SKC
     FM240600 VRB03KT P6SM FEW012
     FM241000 VRB03KT 5SM BR OVC007=

USA.gov is the U.S. government's official web portal to all federal, state and local government web resources and services.